RH
18 17 17 16 15 14 13 11 10 9 7 6 4 4 3 3 4 4 4 4 3 3 3 3 3 3 3 3 2 2 2 2 2 2 8 21 33 37 35 31 28 26 26 31 39 51 58 58 57 55 54 53 55 48 49 57 47 52 70 75 82 84 81 87 92 89 85 81 76 72 68 68 61 50 44 41 46 48 47 48 44 50 55 38 12 4 7 6
22 21 20 19 18 17 16 14 12 11 9 8 6 5 4 3 3 3 4 5 4 4 3 3 3 3 3 3 2 3 2 2 2 1 3 9 21 31 36 33 30 28 27 29 34 43 52 56 57 58 59 57 55 49 50 54 49 65 79 74 83 85 76 81 87 85 84 79 74 72 70 73 64 51 49 43 39 39 39 41 40 48 51 30 8 5 6 6
26 25 25 24 23 21 19 17 14 12 11 9 7 6 5 4 3 3 3 4 5 5 4 3 3 3 3 4 3 3 3 2 2 2 2 3 10 20 30 34 32 30 29 28 27 33 45 53 56 60 63 60 57 52 49 47 49 66 79 77 80 79 72 79 83 82 85 78 73 73 69 70 63 51 52 45 38 37 37 43 42 41 40 21 7 7 6 7
27 28 28 27 26 25 24 21 18 15 13 11 9 7 6 5 4 3 3 3 4 5 5 4 3 3 3 3 4 3 3 3 2 2 2 2 4 10 19 28 31 31 30 29 27 28 36 47 53 59 65 63 60 59 53 49 51 59 73 76 73 70 66 75 82 78 77 73 72 75 70 66 61 56 53 46 45 47 44 46 41 34 31 16 5 7 7 9
27 29 30 30 29 28 27 25 22 19 16 13 11 9 7 5 4 3 3 2 3 4 5 5 4 4 3 3 3 4 4 3 3 3 2 2 2 4 10 18 25 30 31 30 30 28 31 41 48 55 63 63 62 64 59 55 51 52 64 70 73 71 60 66 79 78 75 73 71 73 74 68 64 64 58 52 51 54 55 47 35 27 22 13 6 6 7 8
27 29 30 31 31 31 30 28 27 23 20 17 13 11 8 6 5 4 4 3 3 4 4 5 5 5 4 3 3 3 4 3 4 4 2 2 2 3 5 10 17 23 29 30 30 30 31 35 41 50 60 61 62 65 62 60 52 49 61 69 75 73 65 64 69 78 80 74 72 72 75 73 71 70 63 63 59 57 61 47 34 33 26 16 9 6 8 10
25 27 29 31 32 33 32 30 29 28 24 21 17 13 10 8 6 4 4 4 3 3 4 5 5 6 5 4 3 3 3 3 4 4 3 3 3 2 3 5 11 16 23 28 29 31 33 34 38 46 54 57 58 60 59 60 55 53 62 66 67 65 70 73 66 76 81 72 75 74 77 80 78 75 68 68 64 61 64 48 37 41 32 16 11 10 9 10
22 25 27 29 32 33 33 32 31 30 28 25 21 17 13 9 7 5 4 4 3 4 4 5 5 5 6 6 5 4 2 3 4 4 3 3 3 2 3 3 6 11 16 22 27 30 32 34 38 42 52 60 60 59 55 56 55 55 61 63 65 60 64 76 70 71 77 74 79 76 76 81 77 78 80 76 65 60 62 51 39 36 30 17 12 13 8 10
22 24 26 28 31 33 34 35 33 31 30 28 25 21 16 12 8 6 5 4 3 4 4 5 6 5 6 6 6 5 3 3 4 4 3 4 4 3 3 2 3 7 11 16 21 27 32 34 39 44 53 58 52 51 53 53 50 52 60 60 63 62 60 72 73 70 76 80 83 80 77 75 72 76 80 77 65 55 53 46 36 33 33 25 16 13 8 10
24 25 27 29 30 33 34 35 34 32 30 28 26 23 19 14 10 7 5 5 3 3 4 5 6 6 7 6 6 5 4 4 3 3 4 3 4 3 3 3 2 4 7 12 16 22 29 33 39 43 47 46 37 37 45 47 45 53 63 60 60 65 59 61 71 76 77 80 85 89 88 80 79 79 75 74 66 51 46 38 30 31 34 28 19 14 9 9
26 28 31 31 32 33 34 34 33 31 29 26 24 22 19 16 12 8 6 5 4 3 3 4 6 7 8 7 6 4 5 5 4 3 3 4 4 4 4 3 3 3 4 7 11 17 23 30 36 38 40 41 36 41 50 44 44 54 59 57 61 68 58 50 66 79 76 77 82 92 95 83 81 83 77 77 69 51 45 36 27 34 37 31 24 15 10 10
28 31 32 33 33 33 33 32 31 29 26 24 22 19 17 15 12 10 7 5 4 3 3 3 4 6 8 9 5 4 6 7 6 4 3 3 4 4 4 4 3 3 3 4 7 11 16 23 28 33 36 38 42 54 57 43 43 56 54 52 56 59 52 43 52 65 74 79 77 83 90 83 77 80 78 74 70 58 46 35 28 38 42 37 31 16 8 10
30 31 32 32 32 32 31 30 28 26 24 21 19 17 14 13 11 9 7 6 5 4 4 3 3 4 7 9 5 4 8 8 8 6 4 4 3 4 4 4 4 3 3 3 4 5 10 15 21 30 33 37 46 49 44 38 47 57 50 46 50 51 47 43 46 53 67 75 72 72 76 84 82 76 78 75 75 68 49 37 30 36 42 38 37 23 9 10
31 31 31 31 30 29 28 26 25 23 21 18 15 14 12 11 9 8 7 6 5 4 4 4 3 3 5 7 6 9 11 8 9 8 6 5 3 4 4 4 5 4 4 2 3 3 4 8 14 23 28 38 47 43 42 49 57 58 50 45 45 51 52 46 47 51 57 63 68 70 71 86 85 71 75 73 74 73 59 51 36 33 40 36 39 31 17 14
31 30 29 28 26 24 22 21 20 18 16 14 12 11 10 9 8 7 6 5 5 4 4 4 4 3 4 5 6 11 11 9 12 10 8 7 5 4 4 4 5 4 5 3 3 3 3 4 8 19 27 40 50 49 57 68 67 58 53 50 42 50 66 63 53 48 50 54 63 71 74 84 81 76 80 72 74 76 65 68 54 41 41 35 39 38 29 21
30 28 25 23 21 20 18 16 15 14 13 11 9 8 7 7 6 6 5 5 5 5 4 5 5 4 4 3 5 10 12 12 14 12 10 9 7 5 4 4 5 4 5 4 4 3 3 4 8 16 22 37 49 50 66 84 78 63 57 56 46 50 71 77 64 54 53 54 59 67 70 74 72 77 84 75 79 77 64 73 74 60 50 37 36 40 37 27
26 24 21 19 17 15 13 12 11 10 9 8 7 6 5 5 5 5 4 4 4 4 5 5 5 5 4 4 6 10 12 13 15 14 13 11 9 7 5 4 4 5 5 5 5 3 3 4 6 11 16 34 46 44 67 91 83 70 63 59 55 54 67 77 69 58 55 54 59 64 63 64 68 76 82 77 76 72 64 70 76 72 63 47 35 37 39 28
22 20 17 14 13 11 10 8 7 7 6 6 5 5 5 4 4 4 3 4 3 3 4 5 5 6 5 5 7 9 9 11 15 16 15 13 12 9 6 6 4 5 5 4 6 4 4 3 3 6 11 31 44 40 62 86 81 77 73 65 63 59 66 78 74 63 57 56 63 68 64 61 69 79 79 77 74 69 67 70 78 78 69 56 37 33 38 28
18 15 12 10 9 8 7 5 5 4 4 4 3 3 3 3 3 3 3 3 2 3 3 4 5 6 5 5 6 8 8 9 15 19 18 15 13 11 9 7 5 5 5 5 6 5 5 4 3 4 5 20 35 37 56 82 85 88 92 86 77 67 68 76 75 70 64 61 63 67 68 66 74 88 82 75 75 70 70 74 80 80 69 61 47 38 37 29
14 11 9 7 6 5 4 4 3 3 3 2 2 2 2 3 3 2 3 2 2 2 2 3 5 5 6 7 7 7 6 8 14 19 20 18 15 13 10 8 7 6 5 5 6 5 6 4 3 4 4 13 27 37 60 85 89 91 99 94 78 68 70 70 68 70 67 64 66 61 63 68 73 85 85 80 78 72 71 74 78 81 71 61 54 50 47 36
10 9 7 5 5 4 3 3 2 2 2 2 1 2 2 2 2 2 2 2 2 2 2 3 4 5 6 5 5 5 6 11 14 18 21 21 18 15 12 10 8 7 6 6 6 6 6 5 4 3 5 11 23 40 65 87 90 86 93 96 86 74 69 74 79 80 76 69 69 61 54 62 68 72 78 80 80 79 77 73 74 79 69 57 56 61 60 48
8 7 5 5 4 3 3 2 2 2 2 2 2 1 1 2 2 2 2 2 2 2 2 2 2 4 4 3 5 6 9 12 13 16 21 23 21 17 14 12 10 8 8 8 6 6 5 5 5 3 5 9 18 40 66 88 91 82 89 93 85 76 67 80 94 92 91 79 68 64 55 58 68 72 75 74 77 86 86 75 72 74 65 58 63 66 63 54
7 5 4 4 2 2 3 1 2 2 1 2 1 1 2 1 1 1 2 2 2 2 2 2 3 3 2 4 6 8 11 13 14 15 21 25 23 20 16 13 12 10 9 9 7 6 6 6 6 4 5 7 17 35 55 79 87 84 95 86 70 73 68 78 95 93 98 90 71 71 69 69 78 82 79 76 77 84 89 86 81 80 70 65 72 74 70 57
6 4 4 3 2 3 1 1 2 1 2 2 1 2 1 1 2 2 2 1 2 2 2 2 2 3 5 5 5 9 11 13 15 16 20 27 26 21 18 15 13 11 11 10 8 7 6 6 7 6 5 5 12 24 40 66 78 80 89 75 63 74 68 73 95 97 98 94 76 70 70 70 76 79 71 69 76 77 78 80 81 86 79 70 75 78 75 65
4 3 4 2 2 2 1 2 1 1 2 1 1 2 1 2 2 1 2 2 2 1 2 3 3 3 5 6 7 10 12 12 14 14 19 27 28 24 20 17 14 12 12 11 10 10 8 8 8 6 6 6 7 13 30 54 66 71 73 62 60 71 71 81 99 100 91 88 80 67 64 66 63 65 64 58 65 72 70 67 70 83 85 75 73 73 71 70
3 4 3 2 3 1 1 2 1 2 2 1 3 1 2 2 1 3 2 0 4 6 2 2 3 4 5 7 11 11 11 13 13 12 18 25 27 27 23 18 16 14 13 12 11 9 9 9 8 8 7 5 7 9 19 38 52 60 62 57 56 62 75 92 100 98 89 87 87 71 70 80 67 62 72 65 57 62 69 69 66 72 81 79 74 74 70 65
3 4 2 2 2 1 2 2 1 3 1 2 3 0 3 2 1 4 -0 7 30 36 23 12 7 5 7 10 11 13 17 21 16 10 16 24 27 29 26 21 17 14 14 17 16 11 11 12 7 9 12 8 7 6 8 20 37 48 53 56 52 49 73 96 98 97 92 90 93 81 80 91 78 66 74 73 61 63 74 77 73 73 78 81 76 77 73 59
4 3 2 3 1 2 2 1 3 3 1 3 1 2 4 1 3 3 2 32 73 73 50 37 26 12 9 10 10 17 23 22 19 14 14 22 27 29 28 23 18 15 13 18 24 16 7 14 15 7 9 12 5 5 15 15 20 36 49 60 55 40 58 87 95 98 95 89 90 85 85 90 81 72 75 76 66 65 75 74 74 79 78 77 72 75 81 69
4 3 3 2 1 3 1 2 5 3 2 3 1 4 2 1 6 0 3 45 83 79 57 48 43 26 13 11 14 20 19 18 23 21 16 21 25 27 29 26 20 17 14 13 24 27 18 27 38 16 4 12 3 5 27 26 16 24 37 62 77 63 54 61 77 99 101 89 88 85 81 81 78 75 77 78 67 60 67 69 73 82 81 79 73 73 88 87
4 2 3 2 2 3 1 3 3 1 4 3 2 5 2 4 5 0 23 67 87 79 63 51 46 35 20 13 16 19 21 29 31 19 14 18 25 28 28 28 21 17 19 12 19 42 47 45 43 22 5 9 7 5 19 25 20 20 24 40 67 79 71 59 67 97 105 84 77 82 78 76 75 67 63 69 69 63 63 65 70 77 80 80 77 74 86 91
4 3 3 3 3 3 2 3 2 3 4 1 4 3 2 7 4 18 62 90 86 71 63 58 45 32 23 15 17 19 24 37 31 17 15 16 24 29 27 29 25 19 20 14 15 35 57 60 37 16 12 8 8 9 8 14 15 22 35 31 39 68 81 74 67 81 99 87 75 82 80 77 75 62 56 64 69 66 63 67 72 73 75 79 80 77 83 91
4 4 4 4 5 5 3 3 2 4 3 4 7 1 11 22 22 52 88 87 79 69 65 69 49 27 21 17 21 20 21 35 27 16 19 17 21 28 27 29 24 22 25 22 24 29 52 78 49 16 24 13 4 24 36 28 10 23 61 54 47 77 81 68 60 59 81 89 80 84 81 75 75 64 59 63 61 62 68 75 75 72 72 73 71 66 69 81
4 4 6 6 8 7 6 5 3 4 4 5 3 3 38 69 64 79 93 80 80 74 69 76 56 26 18 25 42 41 38 52 44 24 19 20 24 25 28 31 22 29 42 38 45 49 57 87 68 26 27 13 2 40 68 52 11 16 72 72 53 80 80 54 45 37 45 54 53 69 78 75 77 70 66 65 57 60 74 76 68 66 68 63 55 49 48 57
5 6 8 8 11 11 10 7 3 4 4 6 15 25 56 90 89 84 85 79 77 68 66 76 60 32 20 35 62 61 55 69 64 38 23 25 28 24 27 33 22 31 48 41 52 72 68 75 66 33 28 18 1 33 71 70 31 9 54 79 60 71 79 62 48 31 24 30 35 54 73 75 73 67 66 67 60 58 69 73 64 60 62 55 49 43 37 41
6 7 9 10 13 13 13 12 6 6 5 13 44 65 70 82 91 89 87 81 72 61 61 70 67 54 42 48 65 62 55 66 69 54 47 50 44 39 45 44 30 37 59 57 59 77 75 73 69 42 31 24 4 23 64 86 76 39 44 80 80 71 74 72 65 45 33 43 49 56 67 69 67 64 60 61 63 60 60 65 65 62 60 54 50 44 36 39
6 8 10 12 15 14 14 16 12 11 12 25 59 86 86 80 79 78 76 67 61 63 63 64 68 68 62 63 70 68 59 62 68 62 63 69 57 56 71 67 53 56 74 80 72 72 73 75 74 45 24 19 10 22 42 56 77 69 55 72 83 79 76 73 70 57 48 55 58 57 54 45 46 57 57 54 60 63 57 54 60 64 62 56 52 45 36 36
7 10 11 11 15 16 14 17 19 20 26 40 56 61 62 59 45 42 47 45 53 68 68 64 65 63 65 68 72 77 71 67 76 69 64 74 70 71 85 86 82 74 65 64 63 68 73 72 68 49 29 23 19 27 31 33 56 71 69 68 61 63 74 73 69 61 52 54 54 49 38 26 28 40 46 46 50 55 52 48 53 62 62 55 49 43 36 32
8 12 12 11 16 17 17 18 23 30 36 46 50 33 23 31 27 24 29 32 48 66 67 68 70 67 70 74 75 82 78 74 81 74 68 77 77 76 83 84 85 68 43 39 52 67 80 80 71 57 43 27 16 20 22 24 40 56 70 67 46 52 74 72 66 64 56 51 51 47 39 32 32 31 31 35 40 44 44 44 48 55 57 53 47 44 41 35
9 17 14 10 14 17 19 20 23 41 46 43 47 38 26 30 30 26 29 31 43 65 73 72 72 73 77 78 81 84 77 72 77 73 73 81 77 76 80 78 71 56 43 50 63 72 83 89 81 67 59 40 17 14 14 12 20 29 42 45 37 51 72 66 62 68 65 53 48 51 52 46 39 36 34 33 35 38 42 49 53 52 52 51 50 49 46 41
12 23 17 8 13 16 19 22 27 48 52 31 28 32 27 32 33 30 35 34 44 73 89 84 77 80 85 83 84 83 72 68 73 73 75 78 74 72 69 67 63 56 60 72 72 68 77 89 90 79 69 48 19 11 15 15 15 16 22 31 39 57 69 65 63 66 64 60 57 57 59 54 48 50 48 41 37 34 36 44 50 50 51 53 52 52 51 47
14 21 13 6 12 14 19 25 26 40 50 34 22 19 13 23 37 38 36 37 49 69 79 84 89 91 91 89 89 87 75 69 75 76 76 77 77 72 61 59 56 51 67 85 73 66 78 87 89 81 64 47 34 26 22 19 19 24 28 32 46 66 75 72 68 61 58 70 76 70 65 60 57 58 54 47 43 33 26 31 37 39 42 49 53 51 52 54
15 15 8 7 10 11 17 27 23 25 37 31 22 20 12 16 34 42 39 40 51 60 65 81 97 96 94 93 90 87 79 76 84 87 84 81 83 80 65 51 42 38 63 89 81 77 86 82 83 88 73 61 63 53 30 14 13 22 32 41 56 69 72 73 72 64 63 74 78 76 75 69 61 62 57 49 43 34 26 28 34 33 27 36 52 52 50 56
16 12 8 9 9 7 17 36 37 28 27 22 17 22 20 17 24 32 37 41 49 61 73 84 89 89 97 98 89 87 85 83 88 90 89 88 84 80 66 44 30 28 49 80 89 85 81 75 83 94 85 74 73 58 30 14 10 11 17 30 50 63 64 67 70 67 69 73 67 66 72 68 64 66 63 57 52 47 39 31 32 34 28 31 47 54 52 56
13 10 8 9 9 9 22 44 46 29 23 25 21 20 20 19 21 21 25 33 39 49 62 70 73 81 93 93 89 96 96 88 87 87 90 94 84 69 55 39 28 23 28 48 61 57 56 72 88 91 85 78 68 51 33 19 13 18 24 25 36 59 69 68 68 67 67 70 67 66 66 64 64 65 64 65 63 60 54 39 28 31 35 36 41 48 54 56
20 23 16 10 10 11 15 27 32 25 25 29 26 22 19 18 21 21 22 26 29 35 46 53 57 66 77 80 86 95 93 87 89 90 90 88 74 54 42 35 29 24 23 27 31 30 37 59 76 78 81 83 77 65 52 36 24 29 48 49 40 51 64 64 65 66 63 70 79 76 71 70 67 63 66 69 66 66 64 49 33 28 31 34 37 42 51 57
19 23 18 12 11 11 10 11 17 22 27 29 26 25 22 18 18 19 20 23 24 27 36 40 43 56 67 71 80 86 84 85 87 88 92 88 68 46 38 37 31 26 26 25 28 33 35 42 50 55 64 77 86 81 64 55 45 27 28 35 24 23 41 52 58 62 61 70 81 77 72 76 73 67 70 70 61 61 63 53 41 32 24 22 27 35 43 52
12 9 10 11 12 12 13 13 13 15 20 24 23 20 19 19 20 19 17 19 23 26 30 32 40 55 62 65 79 84 80 84 87 86 92 94 76 52 40 38 35 32 29 24 27 34 33 34 36 32 41 62 81 81 63 54 55 44 42 46 26 13 29 37 41 57 65 66 72 69 66 75 79 74 72 71 63 58 58 54 46 39 31 21 16 23 33 41
10 5 6 8 11 13 12 12 12 12 13 14 14 13 12 12 15 20 19 16 19 24 29 30 33 41 43 49 69 78 70 70 77 78 81 85 80 63 49 42 39 38 33 26 27 26 23 39 50 43 54 73 78 77 66 52 53 60 65 57 27 12 22 21 25 54 69 59 57 59 56 65 78 77 70 69 66 59 54 54 49 42 38 29 16 13 19 28
6 8 9 8 8 9 10 11 11 12 11 11 11 11 12 11 11 16 21 20 18 17 20 27 30 30 30 33 47 67 72 69 70 70 68 73 77 72 63 55 46 42 37 29 28 23 23 50 71 65 68 75 70 71 71 58 55 56 44 27 13 10 17 17 25 49 56 40 33 39 46 58 68 68 66 65 63 59 53 50 47 42 38 31 21 13 13 17
5 8 12 15 13 9 10 12 12 14 13 12 13 12 11 13 12 12 17 23 24 19 17 25 29 29 32 32 34 49 64 68 69 67 62 67 75 76 73 66 53 45 40 34 31 28 27 43 55 48 45 46 46 56 66 63 58 50 35 22 16 15 14 14 20 29 31 24 17 20 32 45 49 49 53 57 55 55 55 50 44 41 39 33 23 13 11 14
6 6 7 16 19 12 10 12 14 18 18 14 15 16 14 13 13 15 17 20 22 22 19 20 21 24 31 32 29 33 40 49 55 53 52 59 63 64 66 64 61 58 50 41 38 33 28 30 29 30 35 36 33 37 49 61 59 50 43 34 24 22 22 21 21 24 25 21 17 19 26 29 28 29 39 50 50 47 48 47 43 38 35 34 28 16 10 11
7 7 6 16 21 12 12 20 20 17 17 16 16 16 16 15 14 16 21 22 23 23 23 18 14 20 29 27 25 28 32 38 43 41 44 51 49 48 51 52 59 67 61 49 44 38 34 29 22 24 28 29 35 40 39 42 42 38 40 36 29 29 29 25 27 28 26 23 23 30 35 33 28 28 36 48 50 43 38 35 35 36 32 29 29 22 14 12
Wind_Speed
20 20 20 19 18 18 18 18 18 17 17 17 18 18 18 18 18 19 20 20 20 20 21 21 22 21 21 21 22 22 22 22 21 23 27 30 30 27 25 23 21 20 20 22 22 22 22 21 20 18 16 14 11 10 8 7 6 5 3 3 3 3 5 4 8 8 5 7 7 7 8 8 9 8 8 9 8 7 7 6 6 7 8 10 10 9 9 9
22 22 22 22 21 20 20 20 20 20 19 19 19 19 19 19 19 20 21 21 21 21 22 22 23 23 22 22 22 23 23 23 23 22 23 27 31 31 29 27 24 21 20 22 23 23 22 21 20 19 17 15 13 12 10 9 7 4 3 3 2 2 5 4 9 8 4 5 5 6 8 9 9 8 9 9 8 7 7 6 7 7 8 10 11 11 10 9
24 24 24 23 23 23 22 22 22 22 22 21 21 21 21 21 21 21 21 22 23 23 23 23 23 24 24 24 23 23 23 23 24 23 22 25 29 32 32 30 26 24 22 22 22 22 22 21 21 20 18 17 14 12 11 10 8 3 3 2 2 2 4 5 7 7 5 5 5 5 6 8 8 7 8 8 8 7 7 8 7 6 8 10 11 12 11 10
25 25 25 25 25 24 24 24 23 24 23 24 23 23 23 23 23 23 22 23 23 24 24 24 24 24 25 25 25 24 24 25 23 22 24 25 27 30 33 33 29 27 24 22 21 21 22 22 22 21 19 18 15 13 12 10 7 5 3 1 1 2 3 5 6 6 5 5 5 6 7 7 6 6 8 8 8 7 6 8 8 7 7 9 10 11 11 11
25 26 26 26 26 26 26 25 25 25 25 25 25 25 25 25 25 24 24 24 24 25 25 26 26 25 26 26 27 26 26 26 22 23 26 25 26 28 31 33 32 30 27 24 22 21 22 23 23 22 20 18 16 14 12 10 7 7 5 2 2 2 3 5 6 6 6 5 4 7 8 7 6 7 8 8 8 7 6 6 7 7 6 7 9 11 12 11
26 27 27 26 27 27 27 26 26 26 26 27 27 27 27 27 27 27 27 26 25 25 26 27 27 27 27 26 27 27 29 24 19 24 26 24 26 27 28 30 32 32 30 27 24 23 23 24 24 23 21 20 18 16 13 10 8 8 6 3 4 4 2 4 6 6 6 6 5 6 8 8 8 8 8 8 7 6 6 6 6 7 7 7 8 10 11 11
27 28 28 27 27 27 27 27 27 27 27 28 28 28 28 29 29 29 29 28 27 27 27 28 28 29 28 28 28 28 30 25 21 26 27 25 26 26 27 28 30 32 31 29 27 25 25 24 25 24 23 21 19 17 15 12 10 10 7 5 7 5 2 3 6 7 5 6 6 7 8 8 8 8 8 8 6 6 6 6 6 8 7 7 8 9 10 10
28 28 29 28 28 28 27 28 27 28 28 28 29 29 29 30 30 31 30 30 29 28 28 28 29 29 29 30 29 29 31 26 24 29 27 26 28 26 27 28 29 31 32 32 30 28 27 25 26 25 24 22 21 20 17 14 13 12 10 7 7 7 5 3 5 7 6 4 6 9 8 7 7 7 7 7 6 6 7 6 6 7 7 7 9 10 10 10
27 28 29 29 29 28 28 28 27 28 28 29 29 29 30 31 31 32 32 31 31 30 30 29 29 30 30 31 31 32 30 24 27 32 27 27 28 27 28 29 29 30 32 33 32 31 29 27 27 27 27 26 25 24 19 17 16 14 12 10 8 8 6 6 6 7 6 5 6 9 10 8 8 7 7 6 5 7 7 6 6 7 7 7 9 11 10 10
26 27 28 28 28 28 28 27 27 28 28 29 29 29 30 31 32 33 33 33 32 32 31 30 31 31 31 32 33 34 29 25 30 33 29 28 28 28 29 29 30 31 31 33 33 32 31 30 29 29 30 28 26 24 20 19 17 14 13 11 11 9 8 8 8 7 7 7 6 6 11 11 9 9 9 7 6 7 7 7 6 7 8 8 9 11 11 10
25 25 25 26 26 26 26 26 26 27 28 29 29 29 30 31 32 33 34 33 33 33 32 32 31 31 32 33 34 34 29 28 31 30 29 30 29 29 30 29 30 31 32 32 33 33 33 33 33 32 31 28 25 22 20 20 17 15 15 14 13 11 10 10 10 8 8 8 7 3 7 9 8 9 9 7 7 8 8 8 7 8 9 8 8 11 11 10
24 23 23 23 23 23 24 24 25 25 26 27 27 29 30 31 32 33 34 33 33 33 32 32 32 33 33 34 36 33 29 29 30 30 30 30 31 31 31 31 31 31 32 33 33 34 35 35 35 33 31 29 26 24 23 22 20 17 17 16 15 13 11 12 13 12 9 8 8 4 4 6 8 8 8 7 7 9 8 9 9 9 9 9 8 10 11 11
23 23 22 22 21 22 22 23 24 24 25 25 26 28 29 31 32 32 33 33 33 33 32 33 32 33 34 35 36 32 29 31 32 32 31 30 31 32 32 32 32 31 32 33 34 35 35 36 35 33 31 29 28 27 25 23 21 19 18 18 17 15 14 14 15 14 11 10 10 7 4 5 7 7 7 9 10 10 9 9 9 10 10 9 8 9 11 11
23 22 22 22 21 21 22 23 23 24 24 24 25 27 28 30 31 32 32 33 33 32 32 32 32 33 34 36 34 30 31 33 33 33 32 31 31 32 33 33 33 32 32 33 34 34 34 34 33 33 31 28 29 27 23 21 21 20 19 19 18 16 16 16 17 16 13 13 11 8 6 4 5 7 8 10 11 11 10 9 9 9 10 10 9 9 10 12
23 22 22 21 21 21 21 22 22 23 23 24 25 26 27 29 30 31 31 32 32 32 32 31 32 32 33 35 34 32 34 34 33 34 33 32 31 32 33 34 34 33 32 32 32 32 32 30 29 31 31 30 30 26 21 20 20 21 19 19 20 17 15 16 19 18 14 14 10 8 8 6 5 6 10 12 11 11 11 10 10 10 10 11 10 10 10 12
22 22 22 21 21 21 21 21 21 22 22 22 23 24 26 27 29 30 30 31 31 31 31 31 32 31 33 35 33 33 35 34 34 34 33 33 32 32 33 34 34 34 33 32 32 32 31 30 30 32 32 32 31 26 23 21 21 22 20 20 21 19 15 15 18 17 14 15 13 10 10 7 6 6 10 13 11 10 11 11 12 11 11 11 11 11 10 12
22 21 21 21 20 20 20 20 21 21 21 21 22 23 24 26 27 29 30 30 30 31 31 31 31 31 32 32 29 32 35 35 35 34 34 34 34 33 33 33 34 34 34 33 32 33 34 34 34 34 33 33 31 29 27 24 22 22 21 21 21 20 18 17 19 18 16 17 15 12 12 10 8 7 10 11 10 10 12 14 14 13 12 12 12 12 12 13
21 21 20 20 20 20 20 20 20 20 20 21 22 22 24 25 26 28 29 30 30 30 31 31 31 31 32 32 31 35 37 37 36 35 35 35 36 34 32 32 33 34 34 34 32 33 34 35 35 35 34 33 32 33 30 26 23 21 20 21 20 21 20 19 20 19 17 18 16 12 12 13 9 8 12 12 10 12 15 16 16 16 14 13 13 13 12 13
20 20 19 19 19 19 19 20 20 20 20 21 21 22 23 24 26 27 28 29 30 30 31 31 31 32 34 33 32 35 38 37 36 36 36 36 36 33 32 33 33 33 34 34 34 34 34 35 36 35 35 34 35 35 31 27 23 17 16 18 20 22 21 21 21 19 19 18 17 14 13 13 9 6 10 13 12 14 16 16 17 16 15 14 14 13 13 13
19 18 18 18 18 19 19 20 20 21 21 21 21 22 23 24 26 27 28 29 30 31 30 29 30 32 34 32 33 36 36 34 34 37 37 37 35 34 35 35 33 33 34 34 35 35 35 36 36 35 34 34 35 35 30 28 24 16 13 18 20 22 22 21 22 21 19 19 17 17 16 13 11 7 7 11 13 14 15 16 17 17 15 15 14 14 14 13
18 18 18 18 18 19 19 20 21 21 21 21 22 22 22 24 26 27 28 29 29 30 29 28 31 32 35 37 38 36 31 31 35 38 38 37 35 35 36 34 34 34 33 33 35 36 36 36 35 35 35 34 35 34 30 29 29 24 18 19 19 22 22 19 19 19 20 19 17 18 19 16 14 12 9 12 14 15 17 16 15 18 18 15 14 14 15 14
18 18 18 18 19 19 20 20 20 21 21 21 21 21 22 24 25 26 27 28 29 29 28 29 31 33 37 39 34 28 27 32 36 36 37 37 36 36 36 35 35 34 32 34 36 36 37 36 35 35 35 36 35 34 34 33 34 32 24 22 22 22 22 16 14 13 13 17 16 15 19 17 15 14 11 13 14 14 16 16 19 20 17 13 12 12 13 14
18 19 19 19 19 20 20 20 20 20 20 21 21 21 22 24 24 26 26 27 28 28 28 28 29 32 36 35 30 27 30 34 35 35 36 37 37 37 37 36 36 35 34 35 36 36 36 35 34 34 36 37 37 37 39 35 35 35 26 25 27 24 21 17 12 10 8 12 14 13 17 17 14 14 14 14 15 14 12 14 18 19 15 13 12 12 11 13
19 20 20 20 20 19 19 19 19 19 19 20 20 20 22 23 24 25 25 26 27 27 27 27 27 29 31 33 31 31 34 35 35 36 36 36 39 39 37 36 36 35 35 36 36 35 34 33 33 34 36 39 41 40 39 36 38 42 34 28 28 24 22 19 14 13 11 12 15 15 18 18 15 17 19 18 16 17 16 14 13 14 14 13 13 13 11 12
21 21 21 21 20 19 19 18 17 17 18 18 18 20 22 22 23 23 23 24 25 26 26 25 25 27 31 33 30 31 34 35 36 37 36 37 40 40 39 38 37 37 37 36 36 34 33 32 33 35 36 39 42 41 40 42 45 45 40 33 27 22 21 19 14 13 11 12 16 15 14 16 17 19 21 21 20 19 20 19 15 13 12 12 13 14 12 12
22 22 22 21 20 19 18 16 15 14 15 15 16 18 19 21 22 22 20 18 20 25 24 23 25 27 29 27 26 31 34 35 38 37 36 38 40 40 39 40 39 38 37 35 36 36 33 33 34 35 36 38 42 43 45 48 45 41 39 37 31 24 18 17 15 12 9 10 14 15 12 17 18 18 17 19 21 20 19 20 18 14 11 9 11 12 13 14
22 23 22 21 20 18 16 14 13 12 12 11 13 14 15 18 19 19 17 11 15 24 23 20 21 22 24 25 28 32 30 32 38 39 37 38 40 40 39 40 40 38 37 35 37 39 35 33 36 36 36 40 43 44 46 45 42 38 34 33 34 30 20 17 20 16 11 10 13 16 15 14 18 17 16 16 18 18 16 15 15 14 13 11 11 11 14 16
22 22 22 21 19 17 16 14 12 11 9 8 9 10 11 13 13 13 11 8 12 21 22 19 17 19 22 25 28 29 29 35 40 39 37 36 38 39 38 39 39 38 39 38 37 38 36 33 35 39 40 44 46 42 40 41 41 36 29 24 29 35 29 20 18 17 15 12 13 17 15 13 19 20 18 18 18 19 19 17 14 13 13 15 14 13 14 17
22 21 21 20 18 17 15 14 13 11 9 7 6 7 8 7 7 9 12 11 14 19 21 19 17 19 21 21 22 26 33 38 38 36 36 37 39 38 37 38 40 40 40 41 37 32 31 30 31 39 44 44 44 40 35 36 38 38 35 27 21 27 32 26 18 15 18 19 19 19 18 17 23 28 25 24 22 22 23 21 18 14 13 15 16 14 13 16
21 20 19 19 19 18 16 14 13 11 8 6 4 4 4 4 6 10 10 8 10 13 17 17 17 19 19 19 21 27 34 33 33 38 40 40 39 37 39 41 43 42 41 44 39 26 23 28 33 40 44 42 39 39 37 34 35 37 41 38 25 18 24 29 25 17 16 23 25 20 17 20 27 33 30 27 24 24 25 24 22 18 15 15 15 14 13 13
20 19 18 18 18 18 17 15 12 10 8 6 5 3 1 3 8 10 8 7 7 8 11 12 15 16 15 17 21 27 31 28 32 41 41 41 38 35 38 40 41 42 41 42 39 30 25 28 37 41 39 41 39 37 39 37 39 38 35 41 36 21 19 26 29 25 17 19 23 18 15 20 28 34 31 28 27 27 26 25 24 20 17 17 16 14 13 13
19 18 18 18 19 19 18 15 12 10 8 7 5 2 1 5 9 7 4 8 4 2 4 8 12 13 12 15 19 24 26 25 32 37 34 35 36 35 36 36 37 36 36 36 34 35 29 22 35 42 36 41 41 33 34 37 43 40 26 32 36 23 20 26 31 33 24 17 17 14 15 23 31 35 33 33 33 29 26 24 24 23 20 19 19 17 16 16
18 17 18 18 19 20 19 16 12 10 8 6 4 1 2 5 7 4 2 6 5 4 3 4 8 11 11 12 14 17 19 19 25 28 30 31 32 35 35 33 34 30 28 30 29 31 28 19 30 41 39 42 41 33 31 33 41 42 26 25 31 22 19 25 29 35 34 27 21 15 17 29 35 34 33 35 34 31 26 21 20 22 21 20 20 19 19 17
17 16 17 17 18 20 20 17 13 10 8 7 5 1 3 4 4 3 2 1 3 7 7 2 5 10 10 12 13 14 15 14 15 18 24 25 24 28 29 29 34 30 24 27 26 24 27 25 28 36 39 42 42 34 26 24 34 43 31 21 25 22 16 19 24 32 35 31 25 20 23 32 36 34 32 32 32 32 30 24 21 21 21 21 21 20 20 18
16 15 15 16 17 18 19 18 13 9 8 5 4 3 4 3 2 2 3 1 1 3 4 4 5 8 8 13 12 12 12 12 11 13 17 18 18 18 17 24 33 30 20 22 25 20 21 22 24 34 40 40 42 37 26 21 24 35 36 24 21 21 16 16 18 22 24 22 21 25 29 34 36 36 35 33 30 30 32 30 27 24 23 23 22 21 22 20
15 14 14 14 15 16 16 17 13 9 7 4 2 3 1 1 2 3 3 4 6 2 2 9 8 7 7 12 13 10 12 15 12 13 15 14 16 16 12 18 24 26 22 20 24 21 15 16 23 36 40 37 38 38 35 31 23 25 33 30 23 20 15 15 13 15 18 19 22 28 35 39 38 37 36 35 33 31 30 30 28 25 24 24 22 21 22 22
14 13 12 12 13 14 15 15 14 9 6 4 2 2 3 2 5 5 4 5 6 3 4 8 9 12 12 14 17 16 16 18 14 14 16 15 19 21 19 18 18 25 32 29 30 29 18 18 28 35 34 35 37 38 41 40 27 20 24 26 25 22 18 18 20 20 21 21 25 30 35 41 41 39 38 36 36 35 33 30 28 25 23 23 22 20 22 25
12 11 11 11 11 13 14 14 13 10 6 3 2 3 3 3 4 4 6 9 7 7 6 8 9 12 13 14 14 14 14 14 12 16 18 17 21 23 23 27 26 29 36 35 33 32 17 15 29 34 32 35 40 40 43 44 34 26 25 27 29 26 20 22 27 27 24 22 26 29 32 38 40 41 43 41 39 39 36 30 28 28 24 21 20 20 22 25
11 10 10 10 11 11 12 13 12 10 7 6 5 3 4 3 2 3 7 10 8 7 8 13 12 10 13 14 11 11 13 11 9 15 18 17 20 21 25 30 29 29 32 33 36 32 16 8 18 26 27 32 40 42 42 45 43 38 33 31 32 29 20 22 28 28 25 25 28 30 32 37 41 42 44 45 44 42 35 26 24 28 28 23 21 22 23 25
10 9 8 10 10 10 10 11 11 11 10 10 8 5 4 4 2 3 7 9 9 5 3 6 9 8 11 13 11 12 14 12 9 12 16 20 19 21 28 31 29 28 31 34 36 31 17 11 11 14 20 30 39 40 37 39 41 40 36 31 30 27 17 18 27 30 29 27 25 33 37 38 39 40 40 43 46 45 37 27 23 26 28 27 25 24 25 26
9 8 9 10 9 9 9 9 10 12 11 10 9 5 3 3 2 3 6 9 9 8 4 1 4 3 7 9 11 13 12 9 11 12 16 21 19 19 25 29 28 28 31 35 35 29 19 15 12 9 15 23 28 31 34 37 38 36 34 30 28 25 17 16 23 30 33 26 21 32 39 38 38 38 37 40 44 44 40 35 31 29 29 30 29 27 26 26
8 8 9 10 8 7 7 6 8 9 9 9 9 6 3 2 2 3 6 9 9 9 8 3 5 4 4 5 9 13 11 8 12 13 16 18 17 18 20 23 25 27 34 37 32 27 23 20 14 6 7 9 12 21 32 40 42 40 37 32 26 24 21 16 17 25 31 27 25 27 30 33 35 36 38 41 43 41 40 38 35 33 32 32 31 31 29 28
8 7 7 8 8 7 6 5 5 5 5 7 8 6 4 3 3 3 6 9 9 8 6 7 9 8 8 7 7 10 10 12 13 12 14 15 15 17 17 19 24 29 38 40 30 25 27 23 16 11 10 10 11 21 32 38 41 42 42 39 31 24 22 20 20 27 31 29 29 30 29 31 32 34 37 39 38 37 37 37 34 32 32 33 32 32 31 30
7 5 5 6 8 8 6 5 4 4 4 5 6 6 4 3 4 5 6 6 8 9 8 11 13 10 10 11 11 8 8 15 15 11 10 12 14 17 18 20 24 28 35 39 35 34 33 26 17 13 12 13 15 23 30 35 37 37 38 41 37 28 23 27 30 33 35 31 28 31 34 35 35 36 36 35 35 35 35 35 34 31 30 32 33 33 33 32
7 4 3 5 6 6 6 6 4 4 4 4 5 5 5 3 2 4 7 6 7 9 10 12 12 11 13 11 11 12 13 15 15 10 7 9 13 17 19 19 21 23 28 33 35 37 37 33 27 20 15 16 18 19 22 30 36 38 37 38 41 36 28 30 34 34 38 37 34 34 35 34 35 35 34 34 34 34 32 30 30 31 31 31 32 34 34 34
6 4 3 4 4 5 5 5 5 4 3 4 4 4 5 5 2 2 5 7 8 9 9 9 11 11 12 11 11 12 12 12 14 12 8 9 13 16 18 19 20 22 25 29 31 32 34 36 36 32 25 22 21 18 20 26 32 40 43 41 44 44 35 34 38 38 38 40 42 41 35 30 31 31 32 35 36 34 32 30 29 30 32 33 33 34 35 36
5 4 4 3 3 3 4 4 4 4 3 4 5 5 4 5 3 2 3 4 7 10 11 10 11 12 13 13 12 11 12 12 12 11 10 11 12 15 18 19 20 22 25 28 29 29 31 33 36 40 36 29 25 22 22 25 26 28 32 35 41 45 42 40 39 37 38 41 44 44 39 33 32 29 29 34 36 34 32 30 30 30 31 34 36 36 36 37
5 4 3 3 2 2 3 3 3 3 3 4 5 6 5 5 4 3 3 2 4 9 13 13 14 15 15 15 15 14 14 14 12 13 13 12 12 15 18 19 20 21 23 26 28 29 30 29 30 34 33 29 28 25 23 26 26 22 24 32 40 43 43 44 41 37 39 42 44 45 43 40 38 34 31 30 32 34 32 29 30 30 31 33 35 37 37 38
5 4 4 3 2 2 2 2 4 3 4 4 4 5 5 5 5 4 4 3 3 4 8 9 12 16 17 16 16 16 17 16 16 18 17 14 14 15 16 18 20 21 23 25 26 28 28 26 25 28 29 30 31 29 26 27 29 28 30 37 44 44 42 43 43 41 43 45 45 45 44 42 42 41 37 33 30 31 31 30 29 30 32 33 35 36 37 38
5 5 5 4 3 2 2 2 3 4 4 5 5 5 5 5 4 4 4 5 4 3 5 5 8 13 16 17 19 19 20 19 18 19 17 15 16 16 16 19 21 22 23 24 24 25 26 27 29 31 34 38 39 35 31 29 31 32 34 37 41 43 43 44 45 46 47 47 46 46 46 45 44 43 41 38 34 32 32 33 32 31 32 33 35 37 37 38
6 5 5 4 3 2 2 1 3 4 5 6 6 6 6 5 5 4 4 5 5 5 5 5 5 8 11 16 19 18 17 18 18 18 17 17 19 19 20 20 19 20 22 23 24 24 25 28 31 31 32 35 37 37 34 31 32 33 34 36 38 37 37 39 40 42 44 44 44 45 47 48 47 45 42 39 38 38 37 36 35 34 34 33 33 36 37 38
6 5 5 4 3 2 1 1 3 4 5 6 6 6 6 5 5 5 4 4 5 6 6 6 6 6 7 9 11 12 13 16 19 18 18 20 21 21 22 22 20 20 22 23 24 24 25 28 31 31 31 28 26 29 32 34 36 34 32 34 37 34 33 35 35 38 41 42 42 43 43 44 46 45 43 40 39 39 41 40 38 36 36 36 35 35 37 38
Wind_Direction
284 282 279 277 274 270 267 265 263 261 259 259 259 260 258 253 247 242 240 239 237 235 234 234 234 232 228 227 228 228 227 224 219 214 212 211 211 213 215 212 204 200 198 200 203 202 204 205 208 209 209 211 209 210 209 209 192 150 120 135 152 98 90 82 88 109 134 133 141 139 136 142 137 136 132 124 129 130 121 125 123 123 136 135 125 118 122 128
285 283 281 279 276 272 268 265 262 259 257 255 253 254 254 253 250 245 241 238 237 236 234 233 233 234 232 228 227 228 228 226 223 217 211 210 212 214 217 216 209 204 202 203 204 203 206 208 210 211 210 214 212 211 214 213 199 142 106 142 147 117 114 88 89 112 152 142 145 143 139 155 155 137 130 131 131 127 125 128 122 126 142 138 130 123 126 132
285 283 281 280 277 274 271 267 263 259 257 254 251 250 250 250 250 248 244 239 236 235 234 233 232 232 233 232 228 227 227 227 225 221 215 211 211 214 217 217 213 208 206 206 204 204 206 210 212 213 212 214 213 213 217 217 204 140 85 139 140 119 108 97 105 122 151 154 151 152 152 160 158 135 133 138 134 133 134 133 128 130 141 141 135 128 129 132
285 283 281 279 277 275 272 269 265 261 257 254 252 249 248 247 247 246 245 242 238 235 234 233 232 231 232 233 231 228 226 227 225 222 219 214 210 212 216 218 216 212 211 208 205 205 207 211 213 214 213 214 214 212 216 220 205 173 175 210 155 140 117 113 119 119 137 162 156 154 161 158 154 146 144 146 138 134 138 137 133 131 137 144 142 133 132 134
286 283 281 278 277 275 272 270 266 263 259 256 253 250 248 246 246 244 243 242 239 237 234 233 233 231 230 230 232 230 228 227 223 225 224 217 212 212 214 216 217 216 214 211 207 205 207 211 214 215 215 215 214 211 213 216 208 194 193 200 206 213 171 138 134 132 143 159 154 160 167 158 156 162 157 150 142 135 139 144 138 135 132 140 148 140 137 141
286 284 281 279 277 275 272 270 267 264 261 257 254 251 248 247 246 244 242 241 239 237 235 234 232 231 230 229 230 230 231 225 218 227 227 220 217 213 214 215 216 217 215 213 210 208 208 210 213 215 215 216 214 213 213 210 208 207 198 187 203 217 194 163 152 143 147 152 156 173 173 164 159 167 165 150 139 138 148 155 147 143 135 133 149 147 141 146
285 284 282 280 278 275 273 270 268 265 262 259 255 252 249 247 246 245 244 241 239 237 235 234 233 232 230 229 228 229 231 223 214 225 224 219 220 215 214 214 214 216 216 215 212 211 211 210 211 214 215 217 215 215 213 206 205 210 211 201 199 200 183 184 172 164 171 161 161 175 176 170 164 169 170 156 142 146 161 168 154 149 143 136 149 154 146 146
283 283 282 281 279 277 274 272 269 266 263 260 256 253 250 248 247 246 245 243 241 237 234 233 233 232 230 230 228 227 229 221 218 226 221 218 219 215 214 213 213 214 214 215 213 212 213 211 212 213 213 214 214 216 213 206 204 205 212 210 209 210 194 210 207 190 193 178 171 177 172 162 165 176 174 167 155 152 165 173 165 157 153 148 151 160 152 146
283 282 281 281 280 278 276 273 271 267 264 260 257 255 252 249 247 246 245 244 243 240 236 232 231 231 230 230 229 227 226 217 221 227 222 219 219 216 215 213 212 213 213 214 213 212 212 212 213 213 213 213 212 211 207 206 206 204 207 204 209 216 203 218 228 206 201 214 210 181 162 158 179 187 165 167 165 155 169 178 176 168 163 161 157 163 157 150
286 283 281 280 279 279 277 274 271 267 264 261 258 255 253 251 249 247 246 244 244 243 239 234 231 230 229 229 229 228 222 215 222 227 223 223 222 218 216 214 213 213 213 213 212 212 212 213 213 214 215 216 216 212 207 206 205 204 209 205 206 213 208 220 231 218 208 232 246 174 149 157 180 181 160 169 178 164 175 180 180 180 174 172 164 166 161 155
290 287 284 281 279 278 277 275 271 267 264 261 259 256 254 251 249 248 247 246 245 243 241 238 233 229 228 228 230 229 222 217 224 227 224 224 224 221 218 215 213 213 214 213 212 212 212 213 214 215 215 216 217 215 213 210 205 203 206 204 205 210 210 218 229 226 213 226 247 185 140 154 172 177 165 172 178 168 178 181 185 189 180 177 170 169 167 161
294 291 288 284 281 279 277 274 271 268 265 262 260 257 254 252 250 248 247 246 245 244 242 240 236 231 228 227 230 228 221 218 223 225 223 223 223 223 220 217 214 213 213 214 213 213 213 214 215 216 216 216 215 212 212 210 205 205 204 201 204 209 212 218 229 232 219 218 233 213 155 166 180 187 176 177 181 174 182 185 185 189 184 183 180 174 173 167
297 294 291 287 283 279 276 273 271 269 266 263 259 257 254 253 251 249 248 246 245 244 243 241 238 235 230 228 228 227 222 220 221 222 222 221 221 222 222 219 216 214 214 214 214 214 214 215 215 217 217 216 216 215 213 209 205 208 206 201 203 206 212 219 227 232 224 219 227 227 217 186 183 197 191 188 188 180 185 191 190 191 186 185 186 180 177 173
299 295 292 289 285 280 276 272 270 268 266 263 259 255 253 252 250 249 248 246 245 244 243 241 239 236 232 230 229 226 224 221 221 221 220 220 220 220 221 221 219 216 215 215 215 216 216 217 216 217 218 217 220 219 216 213 208 210 209 205 207 207 213 221 226 229 227 225 219 219 241 229 193 211 207 198 193 183 184 190 195 197 190 186 189 185 181 181
300 297 294 290 286 282 277 274 270 267 265 262 259 256 253 251 250 249 247 246 245 243 242 241 240 237 234 232 228 224 224 221 220 221 220 221 220 218 219 221 221 218 216 215 215 216 217 217 216 217 217 217 221 217 215 217 213 213 212 208 209 208 212 223 228 227 231 236 223 207 232 248 233 214 200 202 197 189 190 188 194 201 196 190 191 190 185 187
300 297 293 290 287 283 279 275 271 267 264 261 258 256 254 252 250 249 247 246 245 243 242 240 239 237 234 233 229 226 226 222 220 220 219 220 220 219 218 219 222 220 218 215 213 213 213 213 213 216 215 215 217 211 209 215 214 214 214 213 211 210 217 226 229 225 225 235 228 211 220 236 245 221 199 203 197 195 202 194 191 198 200 193 190 194 188 188
299 296 292 290 287 284 281 278 274 270 266 262 259 256 254 252 250 249 247 245 244 243 242 240 239 238 235 233 229 227 228 223 220 220 219 220 220 219 218 218 220 221 219 216 213 211 210 209 209 212 212 214 214 208 207 210 211 213 215 217 214 211 219 226 227 223 220 229 228 220 222 223 234 234 216 211 204 208 215 207 196 190 194 195 191 194 192 190
298 294 292 291 289 287 285 283 280 276 271 267 262 259 255 253 251 249 247 245 244 243 241 240 238 236 234 230 224 224 225 223 219 218 219 219 220 218 217 218 218 219 220 218 214 213 212 211 210 210 209 210 211 209 208 207 207 212 215 219 221 217 219 227 230 227 222 226 226 224 227 224 228 232 220 215 214 219 219 211 199 189 188 191 193 195 194 193
298 295 294 292 291 289 287 286 283 280 276 272 267 262 258 254 251 249 247 245 243 241 240 239 237 236 235 232 227 225 225 222 217 217 217 218 219 217 217 218 216 217 219 217 216 214 212 212 211 211 209 207 208 208 207 205 203 208 220 221 218 218 220 226 232 232 224 222 228 229 228 227 224 219 216 214 217 224 221 208 199 196 190 187 192 194 195 196
300 298 296 294 293 290 288 286 284 282 279 274 270 266 261 256 252 249 248 246 244 242 240 238 237 237 237 234 229 227 226 224 220 217 217 217 217 216 217 217 215 216 217 217 216 215 213 212 211 211 209 207 209 208 205 207 202 198 228 231 219 217 220 226 235 242 235 220 223 230 229 228 224 219 217 219 224 219 210 203 202 204 197 189 191 192 196 201
303 301 298 297 295 293 291 288 286 283 280 277 273 268 264 259 255 251 248 246 244 242 239 236 234 233 234 233 230 228 225 223 222 219 216 217 215 215 216 216 216 215 215 216 216 215 214 212 211 210 209 208 210 208 203 209 208 197 209 227 221 219 219 224 233 240 241 225 215 224 229 230 230 232 223 224 231 212 198 200 207 208 203 192 190 192 195 199
306 304 303 302 299 297 295 291 288 285 282 279 274 271 267 261 257 253 249 248 245 242 240 236 234 232 234 235 234 230 225 223 224 221 217 217 216 214 214 214 216 215 214 217 216 215 215 213 211 209 208 208 208 209 204 207 212 205 205 216 216 216 214 218 224 225 236 230 215 221 231 230 228 231 228 228 230 212 197 204 212 213 208 195 193 202 201 196
310 309 308 308 305 302 298 295 292 287 284 280 276 273 268 263 259 255 251 250 247 243 240 237 234 233 235 236 231 223 222 221 222 220 216 216 216 215 213 213 215 214 214 217 217 216 215 213 213 210 208 208 207 209 207 205 212 211 210 213 212 213 209 201 208 215 227 231 220 220 231 231 227 228 227 228 230 222 211 211 215 215 207 195 191 204 211 202
314 314 315 313 310 306 301 297 294 289 285 281 277 272 267 264 261 257 254 251 249 246 242 238 235 234 235 233 227 220 220 220 219 218 214 214 216 214 213 212 214 214 214 217 218 216 214 212 213 212 210 209 208 209 207 206 214 215 214 212 206 211 209 193 200 220 221 225 224 222 229 228 224 231 233 227 227 227 228 229 223 212 201 195 194 200 211 211
319 320 320 318 315 311 307 304 298 292 286 280 275 270 266 265 263 261 257 254 254 248 243 241 236 233 233 231 225 220 221 222 222 219 213 213 216 214 212 211 212 214 214 217 218 216 213 210 211 212 211 211 211 210 206 210 216 216 216 216 209 211 208 194 206 229 217 216 221 220 239 245 231 233 241 235 226 220 221 227 226 213 206 201 199 204 209 211
324 325 324 323 322 319 317 314 308 301 291 282 274 267 265 265 264 263 259 260 261 253 244 240 236 234 234 231 223 219 221 223 223 220 213 213 216 213 212 212 211 213 214 216 219 216 212 209 210 212 213 214 213 211 210 212 216 217 218 220 217 215 211 202 214 226 200 205 223 213 228 260 251 236 241 238 228 221 216 217 218 219 225 218 204 209 215 212
329 329 328 329 329 327 326 324 320 315 302 289 276 270 267 262 262 262 259 260 259 254 247 239 237 235 232 226 218 215 217 222 224 221 214 213 217 214 212 212 210 212 213 214 217 216 211 209 210 209 212 216 213 212 215 213 214 217 220 227 226 220 218 215 216 219 199 194 226 217 206 246 258 238 231 234 229 228 228 221 216 215 218 218 214 217 221 215
333 333 333 334 335 337 338 339 338 330 318 304 285 276 269 261 259 253 236 217 233 245 247 242 237 233 229 225 220 211 211 220 223 221 215 214 217 215 214 214 211 212 214 214 217 215 210 210 214 211 211 216 213 210 216 214 211 213 212 220 230 224 218 214 211 218 218 201 213 222 207 221 250 243 232 235 233 232 239 239 231 217 207 209 215 218 217 215
336 338 339 339 343 347 350 352 349 344 337 323 300 283 273 258 247 216 196 210 233 239 243 247 243 238 231 224 218 212 215 222 224 220 213 213 217 214 212 214 212 212 215 216 216 213 210 210 217 216 214 218 215 209 215 213 207 212 209 201 214 222 218 218 212 209 223 211 197 211 212 210 236 247 243 239 238 235 237 241 238 227 214 213 216 217 215 215
340 342 345 347 352 357 0 1 358 355 350 339 327 298 270 231 206 180 175 221 248 245 248 251 246 243 238 225 214 210 215 219 221 220 213 210 213 212 212 214 211 210 214 216 215 210 209 213 219 219 214 217 218 213 216 212 202 210 214 208 211 215 210 214 211 204 220 209 185 189 212 216 232 243 242 240 240 240 239 240 241 233 220 221 223 223 223 221
345 347 351 357 3 6 8 8 7 4 0 1 358 322 246 193 187 172 178 215 241 255 250 244 243 243 239 226 216 214 216 218 220 221 217 211 211 211 212 216 214 212 214 215 214 212 212 216 221 219 215 215 216 215 218 215 205 206 213 216 219 220 210 208 208 210 215 202 182 180 206 225 240 244 243 243 242 244 246 245 244 239 222 217 223 227 228 228
350 352 357 5 11 14 15 14 12 12 16 23 18 8 174 190 175 156 203 210 196 290 244 232 234 232 228 217 217 219 216 223 230 226 221 217 216 215 213 216 216 214 218 216 212 214 215 219 223 219 214 213 212 210 215 217 209 205 210 216 214 216 222 211 209 214 214 201 191 189 204 226 241 244 244 245 243 243 248 246 241 239 228 216 217 224 224 224
354 358 4 10 15 19 19 18 17 20 23 25 21 25 158 153 149 134 206 190 149 127 163 241 222 211 219 202 203 212 201 219 236 227 220 219 217 218 215 216 214 211 217 216 209 214 214 214 223 220 215 214 209 205 213 219 212 205 206 214 206 205 224 218 212 218 221 222 217 201 212 230 237 240 241 241 240 238 240 239 236 239 237 226 222 225 222 220
358 3 8 13 18 21 20 19 19 22 20 20 22 19 160 110 93 126 147 223 225 172 160 211 221 213 205 172 188 206 188 208 234 216 214 218 217 218 214 214 213 207 215 215 206 215 219 217 226 224 218 214 209 206 212 218 216 209 206 212 205 197 217 226 220 223 226 231 228 210 216 233 238 239 239 238 236 234 235 241 247 250 248 238 230 228 225 220
2 5 10 15 20 22 21 18 17 23 21 22 46 70 146 127 71 147 155 161 154 157 159 157 200 222 170 154 202 223 184 194 215 190 193 206 210 210 212 222 214 201 209 214 200 212 230 226 232 228 220 215 210 207 205 206 213 212 208 208 199 191 207 224 224 229 228 225 221 212 216 231 238 239 241 241 240 236 235 241 249 253 253 245 235 231 228 222
2 5 12 17 21 22 21 18 16 23 21 16 58 46 74 132 210 205 203 172 140 138 205 147 159 212 174 168 199 205 183 186 185 177 179 187 194 188 198 228 217 196 200 203 185 190 219 226 231 229 223 218 212 208 210 210 205 208 211 210 200 190 202 216 217 225 221 215 217 216 221 229 236 240 242 242 241 240 239 238 241 248 250 243 236 235 234 230
2 5 10 17 22 21 22 19 15 19 26 33 44 336 315 285 257 237 225 212 173 156 181 157 165 191 202 207 196 185 193 194 183 184 188 191 194 190 188 197 199 196 201 198 180 173 186 215 227 231 228 221 212 206 213 213 202 201 212 216 213 199 194 207 209 208 207 212 222 223 229 235 238 241 244 244 243 243 242 237 233 239 245 240 235 237 238 236
359 2 7 16 23 20 19 18 15 21 34 38 18 318 311 308 280 247 216 211 177 130 159 186 173 174 199 218 209 196 190 191 192 181 182 202 207 200 193 188 193 201 202 201 186 171 171 217 229 232 232 227 217 209 214 215 207 203 202 207 211 197 193 212 207 196 195 207 223 227 230 237 240 242 245 247 247 245 243 239 232 233 241 240 234 237 241 241
353 359 8 18 23 18 13 12 16 27 34 23 8 352 336 327 280 232 221 213 191 156 177 190 177 180 197 196 214 217 173 166 198 175 176 212 216 204 201 195 198 204 199 195 184 172 165 209 235 237 232 226 220 214 217 219 217 218 213 210 207 192 198 221 205 190 187 196 219 230 225 226 231 236 240 242 243 243 241 238 230 230 238 242 238 238 241 243
346 354 11 19 19 16 4 1 12 20 24 24 15 3 342 326 273 219 220 219 205 165 150 191 177 185 198 182 194 200 156 148 191 183 195 220 218 212 209 202 202 201 191 187 184 178 173 183 213 234 223 222 222 217 215 218 219 223 223 214 201 191 196 216 206 193 181 182 216 235 228 225 226 229 233 238 240 240 237 236 231 230 237 240 239 239 241 244
341 354 17 20 15 10 357 358 15 13 11 15 5 346 338 322 284 239 217 214 210 192 193 213 124 161 218 189 176 174 152 161 191 192 212 221 218 218 212 207 208 200 185 183 187 185 181 183 194 223 224 223 226 218 212 212 212 214 217 209 198 198 198 197 202 196 183 186 225 236 230 231 232 231 234 239 242 240 239 239 237 236 240 240 239 239 240 243
339 2 19 18 11 2 350 2 30 22 9 4 351 333 323 291 259 246 216 208 214 214 216 195 121 137 194 175 172 168 160 190 205 199 213 220 217 216 211 206 204 196 186 184 187 187 183 184 185 202 222 203 208 216 212 213 213 211 210 206 198 205 208 193 195 199 197 212 236 237 235 235 233 235 238 240 244 245 243 242 240 239 241 239 237 238 237 240
339 5 15 14 12 1 349 2 30 29 12 359 350 342 321 261 215 215 217 218 217 206 205 211 192 172 163 164 168 157 164 202 205 194 207 217 212 207 207 199 191 188 189 188 191 194 190 188 182 184 199 179 185 216 213 212 217 217 216 211 200 198 209 210 208 205 206 221 233 233 240 241 236 236 238 239 245 248 245 242 238 238 238 235 234 235 236 238
329 348 7 14 12 4 359 5 14 13 3 352 353 2 353 288 232 212 208 221 223 208 214 226 214 203 203 190 165 159 204 214 197 183 205 214 203 196 196 196 194 195 195 194 199 204 199 194 189 193 206 204 211 222 214 209 213 214 215 215 204 191 197 208 210 206 206 216 227 228 233 240 240 240 241 242 245 245 242 239 235 233 233 233 232 231 235 238
310 315 6 20 10 4 6 9 6 1 354 344 347 4 8 350 289 231 212 209 214 214 225 231 222 225 233 213 188 199 215 210 202 206 219 209 198 194 193 196 200 200 200 201 206 210 206 199 196 199 201 206 218 222 212 208 208 204 203 207 205 199 198 201 203 206 208 213 223 227 229 234 235 237 241 243 241 238 236 235 231 228 230 232 231 229 232 236
304 318 357 12 2 357 1 4 2 353 343 340 343 352 0 356 350 257 233 225 215 213 223 230 229 237 241 229 224 224 212 209 219 221 219 217 207 200 198 199 197 195 196 202 207 211 212 208 207 210 208 206 210 210 203 204 210 210 208 210 211 210 207 202 201 207 210 212 219 224 226 230 230 232 236 237 237 237 236 234 229 227 228 231 231 229 229 232
292 317 334 336 340 344 349 352 356 353 332 318 320 316 323 329 324 317 289 253 225 221 224 220 220 233 239 230 231 235 221 217 225 220 216 221 212 206 207 204 200 198 198 202 203 206 211 211 213 216 217 215 212 207 205 204 207 211 213 218 220 213 211 211 208 208 212 215 219 223 225 230 230 229 231 233 233 234 235 234 230 227 227 229 230 230 229 230
275 290 294 289 307 320 335 337 331 340 329 310 311 310 308 307 292 286 302 290 240 231 230 222 216 224 232 229 227 232 229 222 223 226 222 216 209 211 213 210 208 207 205 205 204 206 207 205 207 213 216 220 217 212 213 208 198 193 202 217 221 214 213 218 214 209 214 218 219 222 225 230 232 231 232 234 233 231 233 235 232 229 227 227 229 231 230 230
271 279 278 261 264 284 305 321 309 315 320 304 303 308 312 317 300 273 265 267 259 248 244 235 226 227 231 234 233 236 239 233 226 228 226 218 214 215 216 217 215 213 213 210 208 209 205 198 201 207 210 217 219 217 219 212 200 200 212 222 223 217 215 218 214 212 218 223 223 225 227 230 232 233 233 235 235 233 233 234 232 230 229 228 228 229 230 229
270 276 275 249 234 258 269 297 304 307 309 298 296 297 299 316 317 283 256 256 252 256 263 257 243 237 235 236 235 236 241 239 233 233 233 227 224 222 220 221 219 217 218 215 211 211 208 206 210 212 214 218 220 220 222 218 211 214 222 227 226 221 218 218 216 217 223 227 228 229 230 232 234 236 237 239 240 238 237 235 234 233 232 232 229 228 229 229
275 278 278 256 230 236 252 286 308 304 305 301 297 297 293 297 309 303 271 256 246 243 254 261 256 247 238 235 236 239 244 244 240 241 239 235 234 231 228 228 227 226 224 220 217 215 213 216 218 218 219 221 223 225 226 224 223 222 225 229 230 226 224 224 222 221 225 230 230 230 231 233 236 238 239 241 241 240 239 239 238 237 236 235 233 230 229 230
280 280 278 268 240 230 263 307 308 300 308 310 302 298 297 292 295 305 296 264 245 235 238 249 254 250 238 234 239 245 247 245 244 245 241 237 237 236 235 234 231 232 230 224 220 218 218 220 221 220 221 222 226 230 228 229 232 230 229 234 235 231 230 230 228 225 227 229 229 230 231 232 235 238 239 240 241 240 241 242 242 242 239 237 237 235 232 231